Hauptseite
METAR-TAF:

METAR-TAF

Flughäfen :

Plzeň, Tschechien

Breite: 49-40-31N, Länge: 13-16-29E, Höhe: 362 m

Beobachtung

Neuester Wetterbericht von vor 59 Minuten, um 23:00 UTC
Wind 2 kt aus unterschiedlichen Richtungen
Temperatur 2°C
Luftfeuchtigkeit 93%
Luftdruck 1030 hPa
Sichtweite: 7000 m
Durchbrochene Bewölkung in der Höhe von 3700 ft

METAR: LKLN 242300Z AUTO VRB02KT 7000 BKN037 02/01 Q1030

Zeit: 00:59 (23:59 UTC)


TAF: fehlend

Wetterbeobachtungen und Prognosen von mehr als 4000 Flughäfen (METAR und TAF Bericht).

Die verfügbaren Stationen werden durch gelbe und rote Markierungen auf der Karte dargestellt.

Führen Sie die Maus auf sie, um den Namen der Station zu sehen.

Darauf klicken, um die Beobachtung von Wetterbeobachtungen und Prognosen zu sehen.

Um die Karte zu ändern : klicken Sie auf den grünen Tasten mit einem schwarzen Kreuz Zum Vergrößern, auf den grünen Button mit einem Gedankenstrich zu verkleinern, oder auf die grünen Pfeile für benachbarte Karten.


METAR-TAF: